Previsão horária em Allande

Hoje, 15 Junho, Terça-feira

Tempo Temperatura Precipitação Vento Pressão Humidade
00:00 +13°C° 0 mm 1 m/s 680 mmHg 97%
01:00 +13°C° 0 mm 1 m/s 680 mmHg 97%
02:00 +13°C° 0 mm 1 m/s 680 mmHg 96%
03:00 +13°C° 0 mm 1 m/s 679 mmHg 96%
04:00 +13°C° 0 mm 1 m/s 679 mmHg 95%
05:00 +13°C° 0 mm 1 m/s 679 mmHg 95%
06:00 +13°C° 0 mm 1 m/s 679 mmHg 94%
07:00 +16°C° 0 mm 1 m/s 680 mmHg 84%
08:00 +19°C° 0 mm 1 m/s 680 mmHg 73%
09:00 +22°C° 0 mm 1 m/s 680 mmHg 63%
10:00 +23°C° 0 mm 1 m/s 680 mmHg 58%
11:00 +24°C° 0 mm 2 m/s 680 mmHg 52%
12:00 +26°C° 0 mm 2 m/s 680 mmHg 47%
13:00 +25°C° 0 mm 2 m/s 680 mmHg 49%
14:00 +25°C° 0 mm 3 m/s 679 mmHg 51%
15:00 +25°C° 0 mm 3 m/s 679 mmHg 52%
16:00 +24°C° 0.2 mm 2 m/s 678 mmHg 58%
17:00 +21°C° 0.2 mm 2 m/s 678 mmHg 64%
18:00 +20°C° 0.2 mm 2 m/s 678 mmHg 69%
19:00 +19°C° 0.5 mm 1 m/s 677 mmHg 78%
20:00 +16°C° 0.5 mm 1 m/s 677 mmHg 86%
21:00 +14°C° 0.5 mm 1 m/s 677 mmHg 95%
22:00 +14°C° 0.2 mm 1 m/s 677 mmHg 94%
23:00 +14°C° 0.2 mm 1 m/s 676 mmHg 94%

Amanhã, 16 Junho, Quarta-feira

Tempo Temperatura Precipitação Vento Pressão Humidade
00:00 +14°C° 0.2 mm 1 m/s 676 mmHg 94%
01:00 +14°C° 0 mm 1 m/s 675 mmHg 93%
02:00 +14°C° 0 mm 1 m/s 675 mmHg 92%
03:00 +14°C° 0 mm 1 m/s 674 mmHg 92%
04:00 +14°C° 0 mm 1 m/s 674 mmHg 91%
05:00 +14°C° 0 mm 1 m/s 674 mmHg 91%
06:00 +14°C° 0 mm 1 m/s 674 mmHg 91%
07:00 +18°C° 0.1 mm 1 m/s 675 mmHg 81%
08:00 +20°C° 0.1 mm 1 m/s 675 mmHg 70%
09:00 +22°C° 0.1 mm 1 m/s 675 mmHg 60%
10:00 +23°C° 0.2 mm 1 m/s 675 mmHg 56%
11:00 +24°C° 0.2 mm 1 m/s 675 mmHg 52%
12:00 +25°C° 0.2 mm 1 m/s 675 mmHg 47%
13:00 +23°C° 1.9 mm 1 m/s 674 mmHg 61%
14:00 +20°C° 1.9 mm 1 m/s 674 mmHg 75%
15:00 +16°C° 1.9 mm 2 m/s 673 mmHg 89%
16:00 +16°C° 4.9 mm 1 m/s 673 mmHg 92%
17:00 +15°C° 4.9 mm 1 m/s 674 mmHg 95%
18:00 +14°C° 4.9 mm 1 m/s 674 mmHg 98%
19:00 +13°C° 0.9 mm 1 m/s 674 mmHg 97%
20:00 +13°C° 0.9 mm 1 m/s 674 mmHg 97%
21:00 +12°C° 0.9 mm 1 m/s 674 mmHg 96%
22:00 +12°C° 0 mm 1 m/s 674 mmHg 96%
23:00 +10°C° 0 mm 0 m/s 674 mmHg 97%

Depois de amanhã, 17 Junho, Quinta-feira

Tempo Temperatura Precipitação Vento Pressão Humidade
00:00 +10°C° 0 mm 0 m/s 674 mmHg 97%
01:00 +10°C° 0 mm 0 m/s 674 mmHg 97%
02:00 +10°C° 0 mm 0 m/s 673 mmHg 98%
03:00 +11°C° 0 mm 1 m/s 673 mmHg 98%
04:00 +11°C° 0.1 mm 1 m/s 673 mmHg 98%
05:00 +11°C° 0.1 mm 1 m/s 673 mmHg 98%
06:00 +11°C° 0.1 mm 1 m/s 673 mmHg 98%
07:00 +12°C° 0.1 mm 1 m/s 673 mmHg 97%
08:00 +12°C° 0.1 mm 1 m/s 674 mmHg 95%
09:00 +13°C° 0.1 mm 1 m/s 674 mmHg 94%
10:00 +13°C° 0.1 mm 1 m/s 674 mmHg 91%
11:00 +14°C° 0.1 mm 2 m/s 674 mmHg 87%
12:00 +14°C° 0.1 mm 2 m/s 675 mmHg 84%
13:00 +14°C° 0.1 mm 2 m/s 674 mmHg 83%
14:00 +14°C° 0.1 mm 2 m/s 674 mmHg 82%
15:00 +14°C° 0.1 mm 2 m/s 674 mmHg 81%
16:00 +14°C° 0.8 mm 2 m/s 675 mmHg 85%
17:00 +13°C° 0.8 mm 2 m/s 675 mmHg 90%
18:00 +12°C° 0.8 mm 2 m/s 675 mmHg 94%
19:00 +12°C° 0.3 mm 1 m/s 675 mmHg 95%
20:00 +11°C° 0.3 mm 1 m/s 675 mmHg 97%
21:00 +11°C° 0.3 mm 1 m/s 676 mmHg 99%
22:00 +11°C° 0.2 mm 1 m/s 676 mmHg 99%
23:00 +11°C° 0.2 mm 1 m/s 675 mmHg 99%

18 Junho, Sexta-feira

Tempo Temperatura Precipitação Vento Pressão Humidade
00:00 +11°C° 0.2 mm 1 m/s 675 mmHg 99%
01:00 +11°C° 0.1 mm 1 m/s 675 mmHg 98%
02:00 +10°C° 0.1 mm 1 m/s 675 mmHg 98%
03:00 +10°C° 0.1 mm 1 m/s 675 mmHg 98%
04:00 +10°C° 0.1 mm 1 m/s 675 mmHg 98%
05:00 +11°C° 0.1 mm 1 m/s 675 mmHg 98%
06:00 +11°C° 0.1 mm 1 m/s 675 mmHg 98%
07:00 +11°C° 0.1 mm 1 m/s 676 mmHg 95%
08:00 +12°C° 0.1 mm 1 m/s 676 mmHg 93%
09:00 +13°C° 0.1 mm 1 m/s 676 mmHg 91%
10:00 +13°C° 0.4 mm 1 m/s 676 mmHg 89%
11:00 +14°C° 0.4 mm 2 m/s 676 mmHg 87%
12:00 +15°C° 0.4 mm 2 m/s 676 mmHg 85%
13:00 +15°C° 1 mm 2 m/s 676 mmHg 87%
14:00 +15°C° 1 mm 2 m/s 676 mmHg 89%
15:00 +15°C° 1 mm 2 m/s 675 mmHg 91%
16:00 +14°C° 1.1 mm 2 m/s 675 mmHg 93%
17:00 +13°C° 1.1 mm 2 m/s 675 mmHg 95%
18:00 +13°C° 1.1 mm 2 m/s 675 mmHg 97%
19:00 +12°C° 1.6 mm 2 m/s 675 mmHg 97%
20:00 +12°C° 1.6 mm 1 m/s 675 mmHg 98%
21:00 +12°C° 1.6 mm 1 m/s 676 mmHg 99%
22:00 +12°C° 0 mm 1 m/s 675 mmHg 99%
23:00 +11°C° 0 mm 1 m/s 675 mmHg 99%

19 Junho, Sábado

Tempo Temperatura Precipitação Vento Pressão Humidade
00:00 +11°C° 0 mm 1 m/s 674 mmHg 98%
01:00 +11°C° 0.1 mm 1 m/s 674 mmHg 98%
02:00 +11°C° 0.1 mm 1 m/s 674 mmHg 99%
03:00 +11°C° 0.1 mm 1 m/s 674 mmHg 99%
04:00 +11°C° 0.2 mm 1 m/s 674 mmHg 99%
05:00 +11°C° 0.2 mm 1 m/s 674 mmHg 98%
06:00 +12°C° 0.2 mm 1 m/s 674 mmHg 98%
07:00 +12°C° 0.3 mm 1 m/s 674 mmHg 97%
08:00 +12°C° 0.3 mm 1 m/s 674 mmHg 97%
09:00 +12°C° 0.3 mm 1 m/s 674 mmHg 96%
10:00 +13°C° 0.5 mm 1 m/s 674 mmHg 96%
11:00 +13°C° 0.5 mm 1 m/s 674 mmHg 96%
12:00 +13°C° 0.5 mm 1 m/s 674 mmHg 95%
13:00 +13°C° 3.4 mm 1 m/s 674 mmHg 96%
14:00 +12°C° 3.4 mm 1 m/s 674 mmHg 97%
15:00 +12°C° 3.4 mm 1 m/s 675 mmHg 98%
16:00 +11°C° 1.7 mm 0 m/s 675 mmHg 97%
17:00 +12°C° 1.7 mm 0 m/s 675 mmHg 95%
18:00 +12°C° 1.7 mm 0 m/s 675 mmHg 94%
19:00 +11°C° 0.4 mm 0 m/s 675 mmHg 95%
20:00 +11°C° 0.4 mm 0 m/s 676 mmHg 96%
21:00 +10°C° 0.4 mm 0 m/s 676 mmHg 98%
22:00 +10°C° 0.1 mm 0 m/s 676 mmHg 98%
23:00 +10°C° 0.1 mm 0 m/s 676 mmHg 97%

20 Junho, Domingo

Tempo Temperatura Precipitação Vento Pressão Humidade
00:00 +10°C° 0.1 mm 1 m/s 675 mmHg 97%
01:00 +10°C° 0 mm 1 m/s 675 mmHg 97%
02:00 +10°C° 0 mm 1 m/s 675 mmHg 96%
03:00 +10°C° 0 mm 1 m/s 675 mmHg 96%
04:00 +10°C° 0 mm 1 m/s 675 mmHg 96%
05:00 +10°C° 0 mm 1 m/s 675 mmHg 96%
06:00 +10°C° 0 mm 1 m/s 675 mmHg 95%
07:00 +12°C° 0 mm 1 m/s 675 mmHg 86%
08:00 +14°C° 0 mm 1 m/s 676 mmHg 78%
09:00 +15°C° 0 mm 1 m/s 676 mmHg 69%
10:00 +16°C° 0.1 mm 1 m/s 676 mmHg 64%
11:00 +17°C° 0.1 mm 2 m/s 676 mmHg 59%
12:00 +18°C° 0.1 mm 2 m/s 676 mmHg 54%
13:00 +18°C° 0.1 mm 2 m/s 676 mmHg 57%
14:00 +18°C° 0.1 mm 2 m/s 675 mmHg 60%
15:00 +17°C° 0.1 mm 2 m/s 675 mmHg 63%
16:00 +17°C° 0.2 mm 2 m/s 675 mmHg 66%
17:00 +16°C° 0.2 mm 2 m/s 675 mmHg 68%
18:00 +16°C° 0.2 mm 2 m/s 675 mmHg 71%
19:00 +15°C° 0 mm 2 m/s 675 mmHg 76%
20:00 +13°C° 0 mm 2 m/s 675 mmHg 81%
21:00 +12°C° 0 mm 1 m/s 675 mmHg 87%
22:00 +10°C° 0 mm 2 m/s 674 mmHg 87%
23:00 +10°C° 0 mm 2 m/s 674 mmHg 87%
Mostrar mais